Regional Weather Roundup
Issued by NWS

Home | Current Version | Previous Version | Graphics & Text | Print | Product List | Glossary On
Versions: 1 2 3 4 5 6 7 8 9 10 11 12 13 14 15 16 17 18 19 20 21 22 23 24 25 26 27 28 29 30 31 32 33 34 35 36 37 38 39 40 41 42 43 44 45 46 47 48 49 50
625
ASUS43 KMKX 140620
RWRWI

WISCONSIN REGIONAL WEATHER ROUNDUP
NATIONAL WEATHER SERVICE MILWAUKEE/SULLIVAN WI
1200 AM CST SUN FEB 14 2016

NOTE: "FAIR" INDICATES FEW OR NO CLOUDS BELOW 12,000 FEET WITH NO
SIGNIFICANT WEATHER AND/OR OBSTRUCTIONS TO VISIBILITY.

WIZ001-002-006>008-014>016-023>028-140700-
NORTHWEST WISCONSIN

CITY           SKY/WX    TMP DP  RH WIND       PRES   REMARKS
SUPERIOR ARPT  CLOUDY    -9 -14  77 CALM      30.36F
6HR MIN TEMP:  -9; 6HR MAX TEMP:   7;

ASHLAND        CLOUDY   -15 -19  82 S5        30.36F WCI -27
6HR MIN TEMP: -16; 6HR MAX TEMP:   2;

HAYWARD        CLOUDY   -16 -21  78 CALM      30.32F
6HR MIN TEMP: -17; 6HR MAX TEMP:   4;

SIREN          CLOUDY   -10 -17  69 CALM      30.32F
6HR MIN TEMP: -10; 6HR MAX TEMP:   3;

CUMBERLAND     CLOUDY    -4 -15  59 SE3       30.30S
RICE LAKE      CLOUDY    -3 -14  61 E7        30.34F WCI -17
6HR MIN TEMP:  -6; 6HR MAX TEMP:   4;

CHETEK         CLOUDY    -7 -15  67 SE5       30.34F WCI -18
6HR MIN TEMP: -12; 6HR MAX TEMP:   2;

LADYSMITH      CLOUDY   -10 -16  74 E6        30.35F WCI -24
6HR MIN TEMP: -11; 6HR MAX TEMP:   6;

EAU CLAIRE     CLOUDY    -8 -14  74 CALM      30.35F
6HR MIN TEMP:  -9; 6HR MAX TEMP:   4;

MENOMONIE      CLOUDY    -1 -13  56 E7        30.35F WCI -15
6HR MIN TEMP:  -1; 6HR MAX TEMP:   5;

NEW RICHMOND   CLOUDY     1 -11  56 SE6       30.30F WCI -10
6HR MIN TEMP:  -1; 6HR MAX TEMP:   3;

OSCEOLA        CLOUDY     2  -9  59 E6        30.34F WCI  -9
6HR MIN TEMP:   1; 6HR MAX TEMP:   4;

$$

WIZ003>005-009-010-017-018-140700-
NORTH CENTRAL WISCONSIN

CITY           SKY/WX    TMP DP  RH WIND       PRES   REMARKS
MANITOWISH WTR PTCLDY   -20 -25  76 CALM      30.30S
6HR MIN TEMP: -20; 6HR MAX TEMP:  -1;

ARBOR VITAE    CLOUDY   -12 -18  75 CALM      30.30F
6HR MIN TEMP: -12; 6HR MAX TEMP:   3;

WOODRUFF       CLOUDY   -12 -18  75 CALM      30.30F
6HR MIN TEMP: -12; 6HR MAX TEMP:   3;

RHINELANDER    CLOUDY   -14 -20  74 CALM      30.31S
6HR MIN TEMP: -15; 6HR MAX TEMP:   6;

EAGLE RIVER    CLOUDY   -15 -22  72 CALM      30.30F
LAND O LAKES   CLOUDY   -21 -27  73 CALM      30.31F
6HR MIN TEMP: -21; 6HR MAX TEMP:  -2;

PHILLIPS       CLOUDY   -17 -22  79 CALM      30.32S
6HR MIN TEMP: -17; 6HR MAX TEMP:   4;

TOMAHAWK       CLOUDY   -18 -23  75 CALM      30.33F
6HR MIN TEMP: -19; 6HR MAX TEMP:   1;

MEDFORD        CLOUDY   -15 -20  78 CALM      30.31F
6HR MIN TEMP: -16; 6HR MAX TEMP:   0;

MERRILL        CLOUDY   N/A N/A N/A CALM      30.37S
$$

WIZ029-030-035-036-043>047-140700-
CENTRAL WISCONSIN

CITY           SKY/WX    TMP DP  RH WIND       PRES   REMARKS
WAUSAU         CLOUDY    -8 -13  78 SE3       30.37R
6HR MIN TEMP:  -8; 6HR MAX TEMP:   5;

MOSINEE        CLOUDY    -6 -13  71 CALM      30.37F
MARSHFIELD     CLOUDY    -5 -14  65 CALM      30.34F
6HR MIN TEMP:  -5; 6HR MAX TEMP:   5;

STEVENS POINT  PTCLDY   -13 -18  77 CALM      30.40S
6HR MIN TEMP: -13; 6HR MAX TEMP:   3;

WAUPACA        CLOUDY    -8 -14  73 CALM      30.43S
6HR MIN TEMP:  -8; 6HR MAX TEMP:   8;

WAUTOMA        CLOUDY   -13 -19  75 CALM      30.44S
6HR MIN TEMP: -12; 6HR MAX TEMP:   5;

WISC RAPIDS    CLOUDY    -8 -15  71 CALM      30.40F
6HR MIN TEMP:  -9; 6HR MAX TEMP:   5;

CAMP DOUGLAS   PTCLDY    -9 -12  86 SE3       30.39F
6HR MIN TEMP:  -9; 6HR MAX TEMP:   4;

$$

WIZ011>013-019>022-031-037>040-048>050-140700-
NORTHEAST WISCONSIN

CITY           SKY/WX    TMP DP  RH WIND       PRES   REMARKS
ANTIGO         CLOUDY   -15 -20  78 NE3       30.34S
6HR MIN TEMP: -15; 6HR MAX TEMP:   2;

SHAWANO        PTCLDY    -1  -9  69 CALM      30.44R
6HR MIN TEMP:  -2; 6HR MAX TEMP:  12;

OCONTO         CLOUDY    -9 -13  80 CALM      30.44S
6HR MIN TEMP:  -9; 6HR MAX TEMP:   9;

STURGEON BAY   CLOUDY     1  -9  60 SW3       30.44S
6HR MIN TEMP:   1; 6HR MAX TEMP:   7;

GREEN BAY      CLOUDY    -7 -13  75 CALM      30.45R
6HR MIN TEMP:  -7; 6HR MAX TEMP:   7;

MANITOWOC      CLOUDY    -1  -8  72 W7        30.46S WCI -14
6HR MIN TEMP:  -2; 6HR MAX TEMP:   6;

APPLETON       CLOUDY     1 -13  51 CALM      30.40S
CLINTONVILLE   PTCLDY    -6 -13  71 CALM      30.43S
OSHKOSH        CLOUDY    -4 -12  68 SW5       30.43F WCI -15
6HR MIN TEMP:  -6; 6HR MAX TEMP:   7;

$$

WIZ032>034-041-042-053>061-140700-
SOUTHWEST WISCONSIN

CITY           SKY/WX    TMP DP  RH WIND       PRES   REMARKS
LA CROSSE      CLOUDY     3  -7  63 SE5       30.40F WCI  -6
6HR MIN TEMP:   0; 6HR MAX TEMP:   7;

SPARTA         CLOUDY   -10 -15  82 CALM      30.40F
6HR MIN TEMP: -10; 6HR MAX TEMP:   4;

VIROQUA        CLOUDY     4  -8  59 SE6       30.34S WCI  -7
6HR MIN TEMP:   2; 6HR MAX TEMP:   7;

BOSCOBEL       CLOUDY     0  -6  76 CALM      30.42F HAZE
6HR MIN TEMP:  -1; 6HR MAX TEMP:   9;

PRAIRIE DU CHI CLOUDY     6  -6  59 E3        30.39F
6HR MIN TEMP:   5; 6HR MAX TEMP:   9;

PLATTEVILLE    CLOUDY     9  -1  64 E7        30.38F WCI  -3
6HR MIN TEMP:   5; 6HR MAX TEMP:   9;

$$

WIZ056-057-062-063-064-067-068-140700-
SOUTH CENTRAL WISCONSIN

CITY           SKY/WX    TMP DP  RH WIND       PRES   REMARKS
REEDSBURG      CLOUDY    -4 -10  77 CALM      30.40F
6HR MIN TEMP:  -5; 6HR MAX TEMP:   7;

BARABOO/DELLS  CLOUDY    -2 -11  67 CALM      30.39F
6HR MIN TEMP:  -4; 6HR MAX TEMP:   7;

LONE ROCK      CLOUDY    -1  -9  68 CALM      30.42F
6HR MIN TEMP:  -2; 6HR MAX TEMP:   7;

MINERAL POINT  CLOUDY     7  -6  56 SE5       30.36F WCI  -2
MADISON        PTCLDY     4  -6  63 E8        30.41F WCI  -9
6HR MIN TEMP:   2; 6HR MAX TEMP:   7;

MIDDLETON      PTCLDY     0  -4  80 CALM      30.41F
6HR MIN TEMP:   0; 6HR MAX TEMP:   8;

WATERTOWN      CLOUDY     2  -5  73 CALM      30.43F
6HR MIN TEMP:   1; 6HR MAX TEMP:   8;

MONROE         CLOUDY     9   0  66 E7        30.38F WCI  -3
JANESVILLE     CLOUDY    10   0  61 E7        30.42F WCI   0
$$

WIZ051-052-058>065-066-070>072-140700-
SOUTHEAST WISCONSIN

CITY           SKY/WX    TMP DP  RH WIND       PRES   REMARKS
MILWAUKEE      CLOUDY     7  -5  57 W3        30.46F
6HR MIN TEMP:   7; 6HR MAX TEMP:  10;

WAUKESHA       CLOUDY     0  -6  78 CALM      30.45S
MILWAUKEE/TIMM PTCLDY     3  -4  72 CALM      30.47S
RACINE         CLOUDY     6  -6  57 W5        30.48F WCI  -3
6HR MIN TEMP:   5; 6HR MAX TEMP:  10;

BURLINGTON     CLOUDY     0  -4  84 CALM      30.44F
6HR MIN TEMP:  -1; 6HR MAX TEMP:   7;

KENOSHA        PTCLDY     4  -4  69 CALM      30.45F
6HR MIN TEMP:   4; 6HR MAX TEMP:  11;

FOND DU LAC    PTCLDY    -4 -11  72 S6        30.44S WCI -16
6HR MIN TEMP:  -6; 6HR MAX TEMP:   6;

SHEBOYGAN      CLOUDY    -1  -8  72 CALM      30.45S
6HR MIN TEMP:  -2; 6HR MAX TEMP:   5;

WEST BEND      CLOUDY    -2  -8  78 CALM      30.44F
JUNEAU         CLOUDY     0  -7  74 SE6       30.44S WCI -12
6HR MIN TEMP:   0; 6HR MAX TEMP:   6;

$$

LSZ147-162-140700-
LAKE SUPERIOR

STATION/POSITION TIME  TEMP    WIND        PRES    WAVE
                       AIR SEA DIR/SP/G            HT/PER
                 (UTC) (F)     (DEG/KT/KT) (MB)    (FT/S)
DEVILS ISLAND    0600    9     190/  7/  9 1030.0R
SAXON HARBOR     0440  -12                 1028.4F
$$

LMZ867-665-643>646-140700-
LAKE MICHIGAN

STATION/POSITION TIME  TEMP    WIND        PRES    WAVE
                       AIR SEA DIR/SP/G            HT/PER
                 (UTC) (F)     (DEG/KT/KT) (MB)    (FT/S)
CHAMBERS ISLAND  0500    1     180/  3/  3 1030.1F
SISTER BAY       0520    4        CALM   C1F1C2F2C3F3C4F4C5F5C6F6C7F7C8M1C9M2Ca!



USA.gov is the U.S. government's official web portal to all federal, state and local government web resources and services.